Fort Leonard Wood, MO

7:31 AM CDT on October 23, 2019 (GMT -0500)
Waynesville Regional At Forney Field

Weather History for KTBN - May, 2019

Change the Weather History Date:

Tuesday, May 14, 2019

  Actual Average Record
Temperature  
Mean Temperature 62 °F -  
Max Temperature 77 °F 74 °F 90 °F (2013)
Min Temperature 46 °F 56 °F 40 °F (2016)
Degree Days  
Heating Degree Days 4    
Growing Degree Days 12 (Base 50)    
Moisture  
Dew Point 52 °F    
Average Humidity 68    
Maximum Humidity 92    
Minimum Humidity 43    
Precipitation  
Precipitation 0.00 in - - ()
Sea Level Pressure  
Sea Level Pressure 29.98 in    
Wind  
Wind Speed 9 mph (SSE)    
Max Wind Speed 14 mph    
Max Gust Speed 18 mph    
Visibility 10 miles    
Events      
Averages and records for this station are not official NWS values.
T = Trace of Precipitation, MM = Missing Value Source: NWS Daily Summary

Daily Weather History Graph

Daily Weather History Graph

Search for Another Location

Airport or City:

Astronomy

May. 14, 2019 Rise Set
Actual Time 5:59 AM CDT 8:10 PM CDT
Civil Twilight 5:30 AM CDT 8:39 PM CDT
Nautical Twilight 4:54 AM CDT 9:15 PM CDT
Astronomical Twilight 4:15 AM CDT 9:54 PM CDT
Moon 3:38 PM CDT (5/14) 3:45 AM CDT (5/14)
Length of Visible Light 15h 09m
Length of Day
14h 10m
Waxing Gibbous, 79% of the Moon is Illuminated
May 14
Waxing Gibbous
May 18
Full
May 26
Last Quarter
Jun 3
New
Jun 10
First Quarter

Hourly Weather History & Observations

Time (CDT) Temp. Windchill Dew Point Humidity Pressure Visibility Wind Dir Wind Speed Gust Speed Precip Events Conditions
1:56 AM 48.6 °F - 45.5 °F 89% 30.02 in 10.0 mi ESE 6.9 mph - N/A   Clear
2:56 AM 47.7 °F - 45.1 °F 91% 30.02 in 10.0 mi SE 6.9 mph - N/A   Clear
4:56 AM 46.6 °F - 44.1 °F 91% 30.03 in 10.0 mi SSE 5.8 mph - N/A   Clear
5:56 AM 46.0 °F 42.5 °F 43.9 °F 92% 30.03 in 10.0 mi SE 6.9 mph - N/A   Clear
6:56 AM 50.0 °F - 46.4 °F 87% 30.05 in 10.0 mi SSE 9.2 mph - N/A   Clear
6:57 AM 50.0 °F - 46.4 °F 87% 30.06 in 10.0 mi SSE 9.2 mph - N/A   Clear
10:56 AM 68.4 °F - 52.0 °F 56% 30.04 in 10.0 mi South 10.4 mph - N/A   Clear
11:56 AM 71.6 °F - 53.1 °F 52% 30.02 in 10.0 mi SSE 10.4 mph - N/A   Clear
1:56 PM 75.0 °F - 54.0 °F 48% 29.98 in 10.0 mi South 11.5 mph - N/A   Clear
2:56 PM 76.8 °F - 53.2 °F 44% 29.96 in 10.0 mi SSE 11.5 mph - N/A   Clear
3:56 PM 77.0 °F - 52.7 °F 43% 29.94 in 10.0 mi South 13.8 mph 18.4 mph N/A   Clear
4:56 PM 76.5 °F - 55.2 °F 48% 29.93 in 10.0 mi South 10.4 mph - N/A   Clear
5:56 PM 75.6 °F - 56.7 °F 52% 29.93 in 10.0 mi South 12.7 mph - N/A   Scattered Clouds
6:56 PM 74.3 °F - 57.6 °F 56% 29.92 in 10.0 mi South 11.5 mph - N/A   Partly Cloudy
7:56 PM 70.9 °F - 57.6 °F 63% 29.93 in 10.0 mi SSE 8.1 mph - N/A   Clear
8:56 PM 68.9 °F - 57.9 °F 68% 29.94 in 10.0 mi SSE 8.1 mph - N/A   Mostly Cloudy
9:56 PM 66.7 °F - 57.7 °F 73% 29.94 in 10.0 mi SSE 8.1 mph - N/A   Mostly Cloudy
10:56 PM 64.6 °F - 57.6 °F 78% 29.94 in 10.0 mi SSE 10.4 mph - N/A   Partly Cloudy
11:56 PM 63.7 °F - 57.0 °F 79% 29.94 in 10.0 mi SSE 9.2 mph - N/A   Clear